Meath Environmental Platform

Observations for Trim Market St

Time AQI Temp °C Hum % Pres Pa CO μg/m³ H₂S μg/m³ NO μg/m³ NO₂ μg/m³ O₃ μg/m³ SO₂ μg/m³ PM1 μg/m³ PM2.5 μg/m³ PM10 μg/m³
Tuesday 11 August 2026
11:25 2 38.7 22 66,880 0 0 0 14.19 104.02 1 0 4.2 4.62
11:24 2 38.6 22 66,847 0 0 0 14.25 92.19 0.08 0 3.09 3.4
11:23 1 38.4 22 66,835 0 0 0.01 9.42 84.38 1.74 0.71 4.75 5.23
11:22 2 38.3 22 66,819 0 0 0 12.83 88.53 1.2 0.71 4.2 4.62
11:21 1 38.2 22 66,798 0 0 0.01 14.26 99.68 0.95 1.43 4.19 4.61
11:20 1 38.1 22 66,807 0 0 0.03 13.84 89.16 0.04 0.71 3.64 4
11:19 1 38 23 66,817 0 0 0.04 14.25 61.88 0.43 0.71 4.18 4.6
11:18 1 37.9 23 66,806 0 0 0.03 12.11 90.77 0.82 0.71 3.61 3.97
11:17 1 37.9 23 66,762 0 0 0.11 14.07 88.82 0.35 0 3.05 3.35
11:16 1 37.8 23 66,764 0 0 0.12 12.04 92.45 0.74 0.71 4.16 4.57
11:15 1 37.7 23 66,766 0 0 0.18 11.84 77.81 0.45 0 3.6 3.96
11:13 1 37.6 24 66,770 0 0 0.17 13.74 83.94 0.76 0 3.55 3.91
11:11 1 37.6 24 66,788 0 0 0.16 10.3 86.96 1.51 0.71 3.55 3.9
11:04 1 37.5 24 66,788 0 0 0.12 12.75 75.89 0 0 3.01 3.31
11:01 1 37.6 24 66,744 0 0 0.07 12.41 74.1 0 0 3 3.29
10:58 1 37.5 26 66,743 0 0 0.05 13.24 73.87 0 0 3.49 3.84
10:57 1 37.3 26 66,743 0 0 0.07 13.33 79.21 0 0 2.92 3.21
10:56 1 37.2 26 66,712 0 0 0.08 13.82 69.42 0 0.71 4.01 4.41
10:55 1 37.1 27 66,704 0 0 0.1 13.29 78.25 0 0 2.91 3.2
10:54 1 37 27 66,700 0 0 0.13 13.93 57.89 0 0.71 3.45 3.8